Wind_Speed
22 23 23 23 23 23 24 24 25 26 27 26 26 27 27 26 25 26 25 25 25 25 24 23 23 23 23 24 24 24 24 23 24 24 23 24 24 24 24 25 25 25 24
22 23 23 23 24 24 24 26 27 27 27 28 28 28 27 26 26 25 25 25 25 25 24 24 24 24 24 23 24 24 23 24 24 23 23 23 24 24 24 24 24 25 24
22 23 24 24 25 25 26 28 29 29 29 29 29 28 27 27 26 25 25 24 25 26 25 25 25 25 24 23 23 23 24 24 23 23 23 23 24 25 24 25 24 24 25
22 23 24 25 26 26 26 28 29 30 31 30 29 28 27 26 25 25 25 25 25 25 25 25 24 23 23 23 23 24 24 24 24 23 23 23 24 25 25 25 25 25 25
24 25 26 26 26 26 27 29 30 31 31 30 29 27 26 26 25 25 24 24 25 25 25 25 24 23 22 21 22 23 24 24 24 24 24 23 24 24 25 25 25 25 25
25 25 26 27 27 27 28 29 30 30 30 29 27 26 25 24 24 24 23 23 23 24 23 24 23 22 22 21 22 23 23 24 24 24 24 23 23 23 24 24 25 25 25
26 26 26 27 28 28 29 29 30 30 29 27 26 25 25 24 24 24 24 23 22 21 22 22 22 21 21 21 21 22 22 22 23 23 23 23 23 23 23 24 25 25 26
27 27 28 28 29 29 29 30 29 29 27 26 25 24 24 23 22 23 23 21 21 21 21 22 22 22 21 20 21 22 22 22 22 22 22 22 22 23 24 24 25 26 26
27 27 28 28 29 29 29 29 29 28 27 25 24 23 23 23 23 23 22 21 21 21 20 20 21 22 21 21 21 22 23 22 21 22 23 22 22 23 24 24 25 25 25
28 26 27 27 28 28 28 28 28 27 26 25 25 24 23 23 23 22 21 20 21 21 20 19 20 20 21 21 21 21 22 23 22 22 23 22 22 22 23 24 25 25 25
27 25 26 26 27 27 28 27 27 26 25 25 24 24 23 23 22 20 20 20 19 19 19 18 19 20 20 20 20 20 21 21 21 21 21 22 22 22 22 23 23 23 23
25 24 24 25 25 26 27 26 25 25 25 25 24 23 23 22 21 20 19 19 19 19 18 17 18 18 19 19 19 19 19 20 20 20 20 20 21 21 21 20 20 21 22
24 24 24 24 25 25 25 25 24 25 25 25 24 23 22 21 20 19 19 19 18 18 18 17 17 17 18 19 18 18 18 18 18 18 18 18 18 19 20 20 20 21 21
23 23 23 24 25 25 25 25 24 25 25 24 24 23 22 21 20 19 19 18 17 17 17 18 18 18 17 16 15 15 16 16 17 17 17 17 18 19 19 20 20 20 20
22 23 24 25 25 26 26 26 25 25 25 24 24 23 22 21 21 20 19 18 18 18 17 17 17 17 16 16 15 15 16 16 16 16 17 17 18 18 18 19 18 18 18
23 24 24 25 26 26 26 25 24 24 24 24 24 23 22 21 21 20 18 17 17 17 16 17 17 17 17 16 16 16 16 17 17 17 17 18 18 18 18 18 18 18 18
24 25 25 26 26 26 26 25 24 24 24 23 23 23 23 22 21 20 18 17 17 16 16 17 17 17 17 18 17 17 17 17 17 17 17 18 19 19 19 19 18 18 17
25 26 26 26 26 27 26 25 24 24 24 23 23 23 23 21 21 20 19 18 17 17 17 17 17 17 17 18 17 17 17 17 17 17 17 18 18 18 18 18 18 17 17
25 26 26 26 26 26 26 25 24 24 24 23 23 23 22 21 20 20 20 20 19 19 18 18 17 17 17 16 17 17 17 17 17 17 17 18 17 16 16 17 17 17 16
26 26 26 26 26 26 26 25 24 24 23 22 22 22 21 21 20 21 22 21 19 18 18 17 17 17 16 16 16 16 16 17 17 17 17 17 16 16 16 16 16 16 16
26 26 26 26 26 26 26 25 24 24 23 22 22 21 21 21 21 22 22 20 19 18 17 17 16 16 15 15 16 16 16 16 16 16 15 16 15 15 15 16 16 16 17
26 26 26 27 26 26 26 25 24 23 22 21 21 21 20 20 21 21 21 20 19 18 17 16 16 16 15 15 14 15 15 15 15 15 15 15 15 15 15 15 15 16 17
26 26 26 27 26 26 26 25 24 23 22 21 21 21 21 21 21 20 20 19 18 17 16 16 15 15 15 15 16 15 14 14 14 14 15 15 14 14 14 15 16 16 17
27 26 26 27 27 26 25 24 23 23 22 22 22 22 22 21 20 20 19 18 17 17 17 16 14 14 15 15 14 14 15 15 14 14 14 14 14 14 15 15 15 15 16
28 27 26 26 26 25 24 24 24 23 23 23 22 21 21 21 20 19 18 18 18 17 17 16 15 14 14 14 14 14 14 13 13 13 13 13 14 14 14 14 15 15 15
28 27 26 26 26 25 25 24 24 24 24 23 22 21 21 20 19 18 17 17 17 16 16 15 15 15 15 14 14 14 13 12 12 12 13 13 12 13 14 15 15 15 16
Wind_Direction
316 316 317 316 315 312 310 310 309 309 307 305 304 302 299 296 295 294 293 291 289 288 287 284 282 280 279 277 275 275 273 272 270 268 267 265 265 266 267 266 266 266 266
313 313 314 317 316 313 311 309 309 310 309 307 305 302 299 295 294 293 292 290 287 286 286 284 280 278 278 276 274 275 273 273 273 270 269 267 265 265 267 267 267 267 265
311 311 312 314 313 313 312 310 311 311 310 308 307 304 301 296 295 293 291 287 285 284 283 282 277 275 275 273 274 273 272 272 272 269 271 268 265 265 265 265 266 266 264
310 312 312 313 313 314 314 315 315 314 313 310 307 305 302 299 296 294 290 288 285 283 284 282 278 276 274 273 273 273 270 269 270 269 270 269 266 265 266 266 264 263 263
308 311 313 314 315 315 316 317 318 317 316 313 310 306 304 301 297 295 292 289 286 284 284 282 278 277 275 274 276 275 271 269 268 269 269 268 265 265 265 264 263 262 262
309 312 314 315 315 315 316 318 319 317 316 314 312 309 306 302 298 296 293 290 287 284 282 279 276 275 274 273 275 276 275 272 269 269 268 267 266 267 266 263 263 264 264
311 312 313 315 315 315 316 318 319 318 317 315 313 311 309 304 300 297 295 292 287 283 280 277 274 273 273 273 273 275 276 273 271 269 267 266 265 266 267 265 264 265 266
314 315 315 315 316 317 318 319 319 319 319 317 316 315 313 309 305 302 299 294 288 284 283 279 274 273 274 273 273 274 274 275 273 271 269 268 266 267 267 268 267 267 266
314 314 316 316 317 317 319 320 321 321 320 318 318 318 316 312 308 304 302 298 292 289 287 284 279 277 276 273 272 275 274 275 273 271 269 269 269 268 268 269 270 269 267
312 313 315 316 317 317 318 320 321 322 321 319 318 318 318 315 310 307 303 299 297 293 290 285 280 277 278 275 271 270 274 275 276 275 269 268 269 271 271 271 272 271 269
315 315 316 317 318 320 321 322 322 322 322 323 322 319 317 315 312 309 304 302 297 295 291 286 279 278 277 275 272 271 274 274 276 276 272 268 269 271 272 273 273 272 272
316 317 319 321 321 321 322 322 323 323 323 323 323 321 318 316 312 309 307 303 300 296 293 290 283 278 277 277 272 271 271 274 276 275 275 272 272 273 273 275 277 276 274
312 314 317 320 320 321 322 322 322 321 321 321 321 320 317 314 313 313 310 305 301 298 293 291 288 285 284 280 276 272 273 276 277 277 277 276 274 275 276 278 278 278 276
312 314 317 319 319 320 320 320 319 319 320 320 318 317 315 313 312 312 311 306 299 297 295 292 289 289 288 285 280 275 275 277 278 278 277 277 277 278 279 279 278 277 277
315 316 318 319 320 321 321 319 317 317 318 319 318 318 316 313 311 310 309 307 306 303 297 293 291 291 289 287 281 277 278 279 280 278 276 277 280 280 280 279 279 279 280
317 318 319 321 321 321 320 320 318 319 321 321 320 319 318 316 314 312 311 309 310 305 298 298 295 294 292 287 284 281 279 277 277 276 277 278 280 281 280 279 282 283 283
316 318 318 319 320 321 320 319 318 320 320 320 320 319 318 316 316 315 313 306 306 306 302 298 295 292 289 287 285 284 283 280 277 278 278 280 279 277 277 279 282 284 285
315 317 318 320 321 323 322 321 320 320 321 321 320 320 319 318 316 315 312 306 304 302 302 300 298 293 290 287 286 284 284 283 281 280 280 281 278 275 275 277 282 282 282
315 317 318 319 321 323 323 321 320 320 319 319 319 320 318 317 317 315 313 308 302 301 301 300 297 295 290 286 285 285 284 286 284 281 280 283 282 279 277 278 279 279 283
314 315 317 318 320 321 322 321 320 320 319 319 319 320 319 317 317 317 316 312 307 303 302 299 297 296 292 288 288 289 287 287 285 283 281 281 281 280 280 279 278 279 283
312 314 315 316 317 318 320 320 318 319 319 319 320 320 320 320 319 319 318 313 309 306 301 299 298 297 294 292 290 290 289 289 286 283 282 283 282 280 279 279 280 283 284
311 312 314 315 316 317 319 320 319 319 319 318 318 318 318 319 319 319 318 314 310 307 305 302 298 295 294 292 292 293 291 289 285 284 284 283 283 282 280 280 282 284 287
310 311 313 314 316 316 318 318 318 318 317 316 316 317 317 318 318 318 317 315 314 312 307 304 301 299 298 296 296 295 293 289 288 286 287 285 282 281 282 281 282 287 292
311 312 313 314 316 316 317 316 316 316 316 315 315 314 315 316 315 315 316 317 316 315 311 307 306 305 303 299 297 296 295 291 288 287 288 286 283 283 283 285 284 285 291
312 313 313 315 315 315 315 315 315 314 314 314 314 313 314 315 314 314 315 317 318 316 314 313 311 307 305 302 300 298 295 293 293 292 289 289 288 285 286 287 287 288 291
312 313 313 315 316 315 314 314 314 314 314 313 312 312 312 313 313 314 315 316 316 316 318 318 317 314 312 307 301 298 295 293 296 294 292 291 293 294 295 294 292 291 292
Height
5841 5838 5835 5832 5828 5825 5821 5819 5816 5812 5809 5806 5804 5801 5798 5795 5793 5791 5789 5787 5786 5785 5784 5783 5783 5783 5782 5783 5783 5783 5782 5782 5783 5783 5784 5784 5785 5786 5787 5788 5789 5789 5790
5837 5834 5831 5828 5824 5821 5817 5814 5810 5806 5803 5800 5796 5793 5791 5788 5786 5783 5782 5780 5779 5778 5777 5777 5776 5776 5776 5776 5776 5775 5775 5776 5776 5776 5777 5778 5779 5780 5781 5781 5782 5783 5783
5834 5830 5827 5823 5820 5816 5812 5808 5804 5800 5797 5793 5789 5786 5783 5781 5778 5776 5775 5773 5771 5771 5770 5770 5769 5770 5769 5769 5769 5769 5769 5769 5769 5769 5770 5771 5772 5774 5775 5775 5775 5775 5776
5830 5826 5822 5818 5815 5811 5807 5803 5798 5794 5790 5785 5781 5778 5775 5772 5770 5768 5767 5765 5764 5763 5762 5762 5762 5762 5762 5762 5762 5762 5762 5762 5763 5763 5764 5764 5765 5766 5767 5768 5768 5768 5769
5825 5822 5817 5813 5809 5805 5801 5797 5792 5787 5783 5778 5774 5770 5767 5764 5762 5760 5759 5757 5757 5756 5755 5754 5754 5755 5755 5755 5755 5755 5755 5756 5756 5756 5757 5757 5758 5758 5759 5760 5761 5761 5762
5821 5817 5813 5808 5804 5800 5795 5791 5786 5781 5776 5772 5768 5764 5760 5757 5755 5753 5751 5750 5749 5748 5748 5747 5747 5748 5748 5749 5749 5749 5749 5749 5749 5750 5750 5751 5751 5751 5752 5753 5753 5754 5755
5815 5811 5807 5803 5799 5794 5789 5785 5780 5775 5770 5766 5762 5758 5754 5751 5749 5747 5745 5743 5742 5742 5741 5741 5741 5741 5742 5742 5742 5743 5743 5743 5743 5743 5743 5744 5744 5744 5745 5745 5746 5746 5746
5809 5805 5802 5797 5793 5788 5783 5779 5774 5769 5765 5760 5757 5753 5749 5745 5743 5741 5739 5737 5736 5735 5735 5734 5734 5735 5735 5735 5736 5736 5737 5737 5736 5737 5737 5737 5737 5737 5737 5738 5738 5738 5739
5804 5800 5796 5792 5787 5783 5778 5773 5768 5764 5759 5755 5751 5747 5744 5740 5738 5735 5733 5731 5730 5729 5728 5728 5728 5728 5729 5729 5729 5730 5730 5730 5730 5730 5730 5729 5730 5730 5730 5730 5731 5731 5731
5799 5795 5791 5787 5782 5778 5773 5768 5764 5759 5755 5750 5746 5742 5739 5735 5733 5730 5728 5726 5724 5723 5722 5722 5722 5722 5722 5723 5723 5723 5724 5724 5724 5723 5723 5723 5724 5723 5723 5723 5723 5723 5723
5794 5790 5786 5782 5777 5773 5768 5764 5759 5755 5750 5746 5742 5738 5735 5731 5728 5726 5723 5721 5719 5718 5717 5717 5716 5716 5716 5717 5717 5717 5717 5718 5718 5717 5717 5717 5717 5717 5717 5716 5716 5716 5715
5789 5786 5782 5778 5773 5769 5764 5760 5755 5751 5746 5742 5738 5734 5730 5727 5724 5722 5720 5717 5715 5714 5713 5712 5711 5711 5711 5711 5711 5711 5711 5711 5711 5711 5711 5711 5711 5711 5711 5710 5710 5709 5709
5785 5781 5778 5773 5769 5765 5760 5756 5751 5747 5742 5738 5734 5730 5727 5724 5721 5718 5716 5713 5711 5710 5709 5708 5707 5706 5706 5706 5706 5706 5706 5705 5705 5705 5705 5705 5705 5705 5705 5704 5704 5703 5703
5781 5778 5774 5770 5765 5761 5756 5752 5747 5743 5738 5734 5730 5727 5723 5720 5717 5714 5712 5710 5707 5706 5704 5703 5703 5702 5701 5701 5701 5700 5700 5700 5700 5700 5700 5700 5700 5700 5699 5698 5698 5697 5696
5778 5774 5770 5765 5761 5756 5752 5747 5743 5738 5734 5730 5726 5722 5719 5716 5713 5711 5708 5706 5704 5702 5701 5700 5699 5698 5697 5697 5696 5696 5695 5695 5695 5694 5694 5694 5694 5694 5693 5693 5692 5692 5691
5773 5769 5765 5761 5756 5751 5747 5742 5738 5733 5729 5726 5722 5719 5715 5713 5710 5707 5705 5703 5700 5699 5697 5695 5695 5694 5693 5692 5691 5691 5690 5690 5690 5689 5689 5689 5688 5688 5687 5687 5687 5686 5685
5769 5765 5760 5756 5751 5747 5742 5738 5733 5729 5725 5721 5718 5714 5711 5709 5706 5704 5701 5699 5697 5695 5693 5691 5690 5689 5688 5687 5686 5685 5685 5684 5684 5683 5683 5683 5682 5682 5682 5681 5680 5680 5679
5764 5760 5756 5751 5747 5742 5738 5733 5729 5725 5721 5718 5714 5710 5707 5705 5702 5700 5697 5695 5693 5691 5689 5687 5686 5684 5683 5681 5681 5680 5679 5678 5678 5678 5677 5677 5676 5675 5675 5675 5674 5673 5673
5759 5755 5751 5747 5742 5738 5733 5729 5725 5721 5717 5714 5710 5707 5704 5701 5698 5696 5693 5691 5689 5686 5684 5682 5681 5679 5678 5676 5675 5674 5673 5673 5672 5671 5671 5670 5670 5669 5669 5668 5668 5668 5667
5754 5750 5746 5742 5738 5734 5730 5725 5721 5717 5714 5710 5707 5703 5700 5697 5694 5691 5688 5686 5683 5681 5679 5677 5675 5673 5672 5671 5670 5669 5668 5667 5666 5666 5665 5665 5664 5664 5663 5662 5662 5662 5661
5749 5746 5742 5738 5734 5730 5725 5721 5717 5713 5709 5706 5703 5699 5696 5693 5690 5687 5684 5681 5678 5676 5674 5672 5670 5668 5667 5665 5664 5663 5662 5662 5661 5661 5660 5660 5659 5658 5657 5657 5657 5656 5656
5745 5741 5737 5733 5729 5725 5721 5717 5713 5709 5705 5702 5699 5696 5692 5689 5686 5683 5680 5677 5674 5671 5669 5667 5665 5663 5662 5661 5660 5659 5658 5657 5656 5656 5655 5654 5653 5653 5652 5651 5651 5651 5650
5739 5736 5732 5728 5724 5720 5716 5712 5709 5705 5701 5698 5695 5692 5689 5685 5682 5679 5676 5673 5670 5667 5665 5663 5661 5659 5658 5656 5655 5654 5653 5652 5651 5651 5650 5649 5648 5647 5646 5646 5646 5645 5644
5734 5730 5727 5723 5719 5715 5711 5707 5704 5701 5697 5694 5690 5687 5684 5681 5678 5675 5672 5669 5666 5664 5661 5659 5657 5656 5654 5653 5651 5650 5649 5648 5647 5646 5645 5644 5643 5642 5642 5641 5640 5639 5639
5729 5725 5721 5718 5714 5710 5706 5703 5699 5696 5692 5689 5686 5683 5679 5676 5673 5670 5668 5665 5663 5660 5658 5656 5654 5652 5650 5649 5647 5646 5645 5643 5642 5641 5641 5640 5639 5638 5637 5637 5636 5635 5633
5723 5720 5716 5713 5709 5705 5701 5698 5694 5691 5687 5684 5681 5678 5675 5672 5669 5666 5664 5661 5659 5657 5654 5652 5650 5648 5646 5645 5643 5642 5641 5640 5639 5638 5637 5636 5635 5635 5634 5633 5631 5630 5629